Weather reports worldwide

Advertisment
St.Peter-Ording, Germany (10028): temperature & dewpoint: 19.09.2020 02:00:00 - 25.09.2020 02:00:00 (CEST)St.Peter-Ording, Germany (10028): temperature 5cm & temperature -5cm: 19.09.2020 02:00:00 - 25.09.2020 02:00:00 (CEST)St.Peter-Ording, Germany (10028): temperature -20cm & temperature -100cm: 19.09.2020 02:00:00 - 25.09.2020 02:00:00 (CEST)St.Peter-Ording, Germany (10028): wind speed & gusts: 19.09.2020 02:00:00 - 25.09.2020 02:00:00 (CEST)St.Peter-Ording, Germany (10028): wind direction: 19.09.2020 02:00:00 - 25.09.2020 02:00:00 (CEST)St.Peter-Ording, Germany (10028): reduced air pressure: 19.09.2020 02:00:00 - 25.09.2020 02:00:00 (CEST)St.Peter-Ording, Germany (10028): visibility: 19.09.2020 02:00:00 - 25.09.2020 02:00:00 (CEST)St.Peter-Ording, Germany (10028): sunshine duration: 19.09.2020 02:00:00 - 25.09.2020 02:00:00 (CEST)St.Peter-Ording, Germany (10028): precipitation: 19.09.2020 02:00:00 - 25.09.2020 02:00:00 (CEST)
Date & Time tt [°C] td [°C] tt 5cm [°C] tt -5cm [°C] tt -20cm [°C] tt -100cm [°C] ff [km/h] ff [kn] fx [km/h] fx [kn] dd ppp [hPa] vv [km] sd [min] rr [mm]
25.09.2020 02:00:00 - - - - - - - - - - - - - - -
25.09.2020 01:00:00 11,4 8,7 10,2 13,1 16,1 15,7 14 7 20 11 ESE 998,6 37 0 0,0
25.09.2020 00:00:00 11,4 9,0 10,2 13,7 16,5 15,7 13 7 21 11 ESE 999,3 35 0 0,0
24.09.2020 23:00:00 13,9 9,7 12,2 14,4 16,8 15,7 13 7 24 13 SE 999,9 48 0 0,0
24.09.2020 22:00:00 15,0 10,3 13,8 15,1 17,2 15,7 15 8 30 16 SSE 1000,2 44 0 0,0
24.09.2020 21:00:00 15,7 9,7 14,6 15,7 17,5 15,7 20 11 31 17 S 1000,4 37 0 0,0
24.09.2020 20:00:00 16,1 9,8 15,3 16,6 17,8 15,7 22 12 37 20 S 1000,7 34 0 0,0
24.09.2020 19:00:00 16,3 9,3 15,6 17,9 18,0 15,7 23 12 42 23 S 1000,9 39 6 0,0
24.09.2020 18:00:00 16,1 9,1 15,9 18,9 18,0 15,7 22 12 39 21 S 1001,1 40 50 0,0
24.09.2020 17:00:00 16,5 8,4 16,9 21,0 17,8 15,7 29 16 44 24 S 1001,4 50 54 0,0
24.09.2020 16:00:00 16,5 8,6 18,2 21,9 17,4 15,7 29 16 48 26 SSW 1001,5 42 60 0,0
24.09.2020 15:00:00 16,2 9,0 18,1 21,7 16,9 15,7 34 19 49 26 SSW 1001,7 38 53 0,0
24.09.2020 14:00:00 16,4 8,8 18,7 20,8 16,4 15,7 35 19 57 31 SW 1001,4 28 56 0,0
24.09.2020 13:00:00 16,1 9,4 18,3 19,5 15,9 15,7 39 21 55 30 SW 1001,1 34 49 0,0
24.09.2020 12:00:00 15,5 9,6 16,4 17,6 15,6 15,7 44 24 64 35 SW 1000,4 29 29 0,0
24.09.2020 11:00:00 15,3 11,2 15,5 15,7 15,6 15,7 45 24 64 35 SW 999,5 22 10 0,0
24.09.2020 10:00:00 15,8 10,5 16,1 15,4 15,6 15,7 48 26 65 35 WSW 998,3 21 18 0,0
24.09.2020 09:00:00 15,7 11,1 15,9 14,6 15,7 15,7 45 24 68 37 SW 997,3 20 12 0,0
24.09.2020 08:00:00 15,3 11,8 14,4 14,3 15,8 15,7 46 25 70 38 SW 996,4 21 0 0,0
24.09.2020 07:00:00 16,0 12,6 14,9 14,9 15,9 15,7 49 26 66 36 SW 995,3 25 0 0,0
24.09.2020 06:00:00 16,4 14,4 15,6 15,2 16,0 15,7 39 21 56 31 S 994,9 27 0 0,1
24.09.2020 05:00:00 15,8 14,5 15,1 15,1 16,1 15,7 34 18 59 32 S 995,3 9 0 0,8
24.09.2020 04:00:00 16,4 13,0 16,0 14,9 16,3 15,6 26 14 44 24 SSE 995,2 23 0 0,0
24.09.2020 03:00:00 15,8 13,1 15,1 15,0 16,5 15,6 20 11 37 20 SSE 996,0 23 0 0,0
24.09.2020 02:00:00 15,5 14,0 14,5 15,1 16,7 15,6 17 9 29 16 SSE 997,4 10 0 0,0
24.09.2020 01:00:00 16,2 15,2 15,5 15,9 16,9 15,6 16 9 27 15 SSE 998,4 13 0 0,0
24.09.2020 00:00:00 16,1 15,3 15,7 16,1 17,1 15,6 10 6 23 12 SSE 999,2 21 0 0,0
23.09.2020 23:00:00 16,6 15,2 16,0 16,5 17,3 15,6 21 12 33 18 SSW 1000,2 14 0 0,1
23.09.2020 22:00:00 16,3 15,5 16,0 16,8 17,6 15,6 13 7 38 20 S 1000,3 12 0 0,2
23.09.2020 21:00:00 15,6 15,0 15,3 16,9 17,8 15,7 24 13 48 26 SW 1000,7 4,5 0 6,5
23.09.2020 20:00:00 18,7 14,2 18,0 18,5 18,0 15,7 18 10 29 16 SSE 1000,3 42 0 0,0
23.09.2020 19:00:00 18,4 14,3 17,7 19,6 18,0 15,7 19 10 27 15 S 1000,6 25 17 0,0
23.09.2020 18:00:00 19,6 14,7 20,6 21,4 17,9 15,7 15 8 26 14 S 1001,1 25 15 0,0
23.09.2020 17:00:00 19,3 15,2 19,9 22,7 17,5 15,7 16 9 29 15 S 1002,1 14 43 0,0
23.09.2020 16:00:00 19,6 15,3 21,7 23,5 16,9 15,7 20 11 30 16 S 1002,5 11 60 0,0
23.09.2020 15:00:00 19,2 15,2 21,6 23,2 16,3 15,7 20 11 34 18 SSW 1002,8 10 60 0,0
23.09.2020 14:00:00 18,3 15,2 20,9 21,9 15,7 15,7 22 12 36 19 SSW 1003,1 8 46 0,0
23.09.2020 13:00:00 17,2 14,5 19,4 20,7 15,1 15,7 26 14 33 18 SW 1003,3 8 57 0,0
23.09.2020 12:00:00 17,2 14,2 18,7 18,6 14,6 15,7 22 12 34 18 SSW 1003,3 8 40 0,0
23.09.2020 11:00:00 17,4 13,7 18,4 16,6 14,3 15,7 25 14 33 18 SW 1003,4 11 18 0,0
23.09.2020 10:00:00 16,9 13,2 17,2 15,2 14,0 15,7 22 12 33 18 SSW 1003,0 14 28 0,0
23.09.2020 09:00:00 16,5 13,3 16,1 13,3 14,0 15,7 17 9 25 14 S 1003,0 14 60 0,0
23.09.2020 08:00:00 15,2 13,1 13,4 11,9 14,0 15,7 14 8 18 10 S 1003,1 10 0 0,0
23.09.2020 07:00:00 14,8 13,5 13,1 11,5 14,2 15,7 13 7 16 9 SSW 1003,2 2,8 0 0,0
23.09.2020 06:00:00 14,4 13,5 12,9 11,0 14,4 15,7 12 7 16 9 S 1003,3 2,2 0 0,0
23.09.2020 05:00:00 12,3 12,0 6,6 10,7 14,7 15,7 10 5 16 9 S 1003,9 6 0 0,0
23.09.2020 04:00:00 12,3 11,9 7,5 11,0 15,0 15,7 10 6 16 8 SSE 1004,3 5 0 0,0
23.09.2020 03:00:00 10,2 10,0 6,1 11,3 15,4 15,6 10 5 14 8 SSE 1004,6 8 0 0,0
23.09.2020 02:00:00 10,1 9,4 6,9 11,7 15,8 15,6 11 6 15 8 SSE 1005,0 8 0 0,0
23.09.2020 01:00:00 9,8 9,5 6,9 12,3 16,2 15,6 9 5 11 6 SE 1005,6 2,4 0 0,0
23.09.2020 00:00:00 9,8 9,5 7,3 12,9 16,6 15,6 8 4 9 5 SE 1006,1 1,5 0 0,0
22.09.2020 23:00:00 10,6 10,5 8,8 13,7 17,0 15,6 7 4 9 5 SE 1006,3 0,6 0 0,0
22.09.2020 22:00:00 12,0 11,7 6,4 14,6 17,5 15,7 3 1 7 4 WNW 1006,7 0,6 0 0,0
22.09.2020 21:00:00 13,8 13,8 7,8 15,7 17,9 15,7 6 3 7 4 W 1007,0 0,9 0 0,0
22.09.2020 20:00:00 14,3 13,8 9,8 17,4 18,2 15,7 6 4 7 4 WSW 1007,3 2,6 0 0,0
22.09.2020 19:00:00 16,9 14,5 16,0 19,7 18,3 15,7 5 3 10 6 SSW 1007,5 6 58 0,0
22.09.2020 18:00:00 18,0 13,2 18,9 21,4 18,2 15,7 9 5 12 6 SW 1007,8 11 60 0,0
22.09.2020 17:00:00 19,1 11,7 20,0 24,0 17,7 15,7 10 5 12 6 SSW 1008,5 20 60 0,0
22.09.2020 16:00:00 19,5 12,0 22,3 24,8 17,1 15,7 6 4 10 6 WSW 1009,2 17 60 0,0
22.09.2020 15:00:00 19,0 12,9 22,9 24,6 16,3 15,7 8 4 14 8 W 1009,6 15 60 0,0
22.09.2020 14:00:00 18,3 15,1 22,0 23,8 15,4 15,7 10 6 14 8 WSW 1010,1 8 60 0,0
22.09.2020 13:00:00 18,9 13,0 22,7 22,2 14,6 15,7 10 5 16 9 SW 1010,5 13 60 0,0
22.09.2020 12:00:00 18,8 13,4 21,6 19,8 13,9 15,7 10 5 14 8 SSW 1010,7 15 60 0,0
22.09.2020 11:00:00 17,9 13,9 20,0 16,9 13,4 15,7 10 5 14 8 S 1011,1 14 60 0,0
22.09.2020 10:00:00 17,0 14,2 18,3 13,7 13,2 15,7 8 4 11 6 SSE 1011,0 11 60 0,0
22.09.2020 09:00:00 11,7 10,9 12,0 10,7 13,3 15,7 7 4 10 6 SSE 1011,1 3,7 60 0,0
22.09.2020 08:00:00 8,9 8,6 8,0 9,5 13,5 15,7 8 4 11 6 SE 1011,3 1,4 11 0,0
22.09.2020 07:00:00 8,9 8,8 5,7 9,2 13,8 15,7 8 5 9 5 SE 1011,3 2,4 0 0,0
22.09.2020 06:00:00 7,9 7,9 3,0 9,5 14,2 15,7 3 2 8 5 SE 1011,8 3,9 0 0,0
22.09.2020 05:00:00 8,6 8,4 3,0 9,9 14,5 15,7 6 3 11 6 ENE 1012,2 4,9 0 0,0
22.09.2020 04:00:00 8,4 8,2 3,5 10,4 14,8 15,7 6 4 10 5 SSE 1012,8 26 0 0,0
22.09.2020 03:00:00 9,1 8,2 4,1 10,9 15,2 15,7 7 4 12 6 SSE 1013,3 27 0 0,0
22.09.2020 02:00:00 11,2 9,8 5,3 11,5 15,6 15,7 11 6 16 9 SE 1013,5 22 0 0,0
22.09.2020 01:00:00 10,9 9,7 7,5 11,9 16,0 15,7 12 6 14 8 ESE 1014,1 18 0 0,0
22.09.2020 00:00:00 11,2 10,3 5,6 12,5 16,4 15,7 10 6 11 6 E 1014,8 16 0 0,0
21.09.2020 23:00:00 11,7 10,2 6,4 13,1 16,9 15,7 10 5 11 6 E 1015,0 22 0 0,0
21.09.2020 22:00:00 11,9 11,3 5,3 13,9 17,4 15,7 9 5 10 5 E 1015,3 21 0 0,0
21.09.2020 21:00:00 12,4 12,0 5,9 15,2 17,9 15,7 9 5 10 5 E 1015,4 13 0 0,0
21.09.2020 20:00:00 13,4 12,2 7,6 17,1 18,3 15,7 6 3 8 4 E 1015,3 16 16 0,0
21.09.2020 19:00:00 16,4 11,9 14,5 19,8 18,4 15,7 5 3 10 5 N 1015,6 32 60 0,0
21.09.2020 18:00:00 18,0 11,4 20,0 21,6 18,3 15,7 5 3 8 4 NW 1016,1 34 60 0,0
21.09.2020 17:00:00 19,6 9,6 20,1 24,5 17,8 15,7 6 3 11 6 W 1016,6 48 60 0,0
21.09.2020 16:00:00 20,1 11,4 22,8 25,3 17,1 15,7 8 5 15 8 WSW 1017,0 39 60 0,0
21.09.2020 15:00:00 20,0 9,1 23,1 25,1 16,2 15,7 11 6 18 10 SSW 1017,3 43 60 0,0
21.09.2020 14:00:00 19,6 9,4 22,5 24,1 15,3 15,7 11 6 18 10 S 1017,8 46 60 0,0
21.09.2020 13:00:00 18,4 11,1 23,2 22,2 14,5 15,7 9 5 14 7 E 1018,2 58 60 0,0
21.09.2020 12:00:00 16,3 11,5 19,6 19,4 13,9 15,7 8 5 16 8 ESE 1018,5 31 60 0,0
21.09.2020 11:00:00 14,1 12,6 15,5 16,1 13,6 15,7 11 6 15 8 E 1018,5 22 54 0,0
21.09.2020 10:00:00 11,1 11,1 12,7 13,1 13,5 15,7 10 5 16 9 E 1019,0 5 46 0,0
21.09.2020 09:00:00 9,1 9,1 9,7 11,4 13,5 15,7 12 7 22 12 ESE 1019,1 0,2 19 0,0
21.09.2020 08:00:00 8,6 8,6 8,8 11,3 13,6 15,7 15 8 19 10 E 1019,1 0,1 0 0,0
21.09.2020 07:00:00 10,9 10,9 11,0 11,5 13,7 15,7 13 7 20 11 ENE 1019,6 0,1 0 0,0
21.09.2020 06:00:00 10,0 10,0 10,0 10,9 13,8 15,7 12 6 20 11 NE 1019,6 0,1 0 0,1
21.09.2020 05:00:00 7,1 7,1 7,0 10,2 14,1 15,7 9 5 14 8 ENE 1019,8 0,1 0 0,0
21.09.2020 04:00:00 7,8 7,8 7,6 10,5 14,4 15,7 11 6 16 9 E 1019,7 0,1 0 0,0
21.09.2020 03:00:00 8,3 8,3 6,1 10,2 14,7 15,7 11 6 14 8 E 1020,2 0,2 0 0,0
21.09.2020 02:00:00 8,6 8,0 6,9 10,8 15,1 15,7 12 6 14 8 E 1020,5 7 0 0,0
21.09.2020 01:00:00 9,3 8,3 6,5 11,3 15,5 15,7 10 5 14 8 E 1020,9 21 0 0,0
21.09.2020 00:00:00 9,4 8,2 5,6 12,0 16,0 15,7 10 5 12 7 E 1021,0 31 0 0,0
20.09.2020 23:00:00 11,0 8,5 7,7 12,9 16,4 15,8 11 6 17 9 E 1020,9 42 0 0,0
20.09.2020 22:00:00 11,7 9,0 9,5 13,8 16,8 15,8 11 6 17 9 ENE 1021,0 51 0 0,0
20.09.2020 21:00:00 12,1 9,2 9,0 14,7 17,3 15,8 12 7 18 10 NE 1021,0 51 0 0,0
20.09.2020 20:00:00 13,6 9,2 8,8 16,5 17,6 15,8 10 6 13 7 ENE 1020,6 62 13 0,0
20.09.2020 19:00:00 16,4 9,5 15,7 19,1 17,7 15,8 10 5 19 10 ENE 1020,3 57 60 0,0
20.09.2020 18:00:00 18,5 10,8 20,0 20,8 17,5 15,8 11 6 23 13 ENE 1020,5 67 60 0,0
20.09.2020 17:00:00 18,8 12,9 20,6 23,2 17,1 15,8 16 9 29 15 NNE 1020,6 37 60 0,0
20.09.2020 16:00:00 19,0 12,2 22,2 24,1 16,4 15,8 20 11 25 14 N 1020,7 40 60 0,0
20.09.2020 15:00:00 19,7 9,2 23,8 24,2 15,6 15,9 11 6 22 12 ENE 1020,9 67 60 0,0
20.09.2020 14:00:00 19,0 8,4 22,8 23,2 14,7 15,9 12 7 22 12 ENE 1021,3 64 60 0,0
20.09.2020 13:00:00 18,5 10,5 22,3 21,2 13,8 15,9 13 7 26 14 E 1021,2 55 60 0,0
20.09.2020 12:00:00 17,0 11,7 20,2 18,7 13,1 15,9 18 10 25 13 E 1021,8 34 60 0,0
20.09.2020 11:00:00 16,1 11,5 18,6 15,8 12,6 15,9 17 9 24 13 E 1022,0 48 60 0,0
20.09.2020 10:00:00 14,0 10,2 15,1 12,7 12,4 15,9 12 7 19 10 E 1022,0 36 60 0,0
20.09.2020 09:00:00 11,4 9,7 11,6 9,7 12,5 15,9 7 4 14 8 E 1021,9 21 60 0,0
20.09.2020 08:00:00 8,5 7,9 7,0 8,2 12,8 15,9 10 6 14 8 ENE 1021,8 9 28 0,0
20.09.2020 07:00:00 7,7 7,2 5,0 8,3 13,1 15,9 10 6 14 7 E 1021,6 12 0 0,0
20.09.2020 06:00:00 7,6 6,9 2,4 8,7 13,4 15,9 10 5 15 8 E 1021,4 24 0 0,0
20.09.2020 05:00:00 8,5 7,4 4,6 9,3 13,7 15,9 11 6 18 10 ENE 1021,5 33 0 0,0
20.09.2020 04:00:00 9,0 7,8 6,9 9,8 14,0 15,9 13 7 16 9 ENE 1021,8 24 0 0,0
20.09.2020 03:00:00 8,5 7,5 6,3 10,0 14,3 15,9 11 6 14 8 ENE 1022,0 18 0 0,0
20.09.2020 02:00:00 8,4 7,1 6,1 10,3 14,7 15,9 9 5 13 7 ENE 1022,3 30 0 0,0
20.09.2020 01:00:00 8,4 6,9 6,0 10,7 15,1 16,0 11 6 14 7 E 1022,5 41 0 0,0
20.09.2020 00:00:00 8,7 7,3 5,1 11,5 15,5 16,0 9 5 14 8 E 1022,4 34 0 0,0
19.09.2020 23:00:00 10,0 7,9 7,7 12,4 15,9 16,0 9 5 21 11 E 1022,4 36 0 0,0
19.09.2020 22:00:00 10,9 7,6 9,3 13,4 16,3 16,0 15 8 21 12 ENE 1022,1 50 0 0,0
19.09.2020 21:00:00 11,9 7,4 10,1 14,6 16,6 16,0 13 7 21 11 ENE 1022,0 54 0 0,0
19.09.2020 20:00:00 13,4 7,8 12,0 16,1 16,8 16,0 16 9 22 12 ENE 1021,9 66 0 0,0
19.09.2020 19:00:00 15,3 8,8 14,6 17,9 16,8 16,0 16 8 21 11 ENE 1021,8 64 0 0,0
19.09.2020 18:00:00 16,8 10,0 17,0 19,3 16,7 16,1 14 8 20 11 ENE 1022,0 49 0 0,0
19.09.2020 17:00:00 17,7 9,4 18,5 20,3 16,4 16,1 13 7 21 11 E 1022,5 70 0 0,0
19.09.2020 16:00:00 18,0 8,0 19,2 21,0 15,9 16,1 14 8 25 13 E 1022,9 53 23 0,0
19.09.2020 15:00:00 18,2 8,2 20,2 21,6 15,2 16,1 13 7 26 14 E 1023,5 74 60 0,0
19.09.2020 14:00:00 17,8 8,7 20,5 21,2 14,5 16,1 17 9 26 14 E 1024,0 43 60 0,0
19.09.2020 13:00:00 17,4 8,2 20,2 20,0 13,7 16,1 17 9 28 15 E 1024,2 68 60 0,0
19.09.2020 12:00:00 16,7 8,4 19,3 17,5 13,1 16,1 16 9 23 12 E 1024,7 73 60 0,0
19.09.2020 11:00:00 14,6 8,5 16,6 15,1 12,6 16,1 15 8 24 13 E 1025,2 70 60 0,0
19.09.2020 10:00:00 12,4 8,4 13,5 11,8 12,5 16,1 12 7 17 9 E 1025,2 47 60 0,0
19.09.2020 09:00:00 9,6 6,9 9,3 9,4 12,6 16,2 14 7 19 10 E 1025,2 55 59 0,0
19.09.2020 08:00:00 6,9 5,1 5,8 8,1 12,9 16,2 11 6 16 9 E 1025,3 44 14 0,0
19.09.2020 07:00:00 6,3 4,7 3,8 8,0 13,2 16,2 12 7 16 9 E 1025,3 46 0 0,0
19.09.2020 06:00:00 6,3 4,5 3,3 8,3 13,5 16,2 12 7 16 9 E 1025,5 52 0 0,0
19.09.2020 05:00:00 6,4 4,7 3,5 8,6 13,8 16,2 13 7 16 9 E 1025,8 55 0 0,0
19.09.2020 04:00:00 6,5 4,4 3,8 8,9 14,2 16,2 12 7 16 9 ENE 1026,1 68 0 0,0
19.09.2020 03:00:00 6,5 4,5 4,0 9,4 14,6 16,2 11 6 16 9 ENE 1026,6 59 0 0,0
19.09.2020 02:00:00 6,9 4,7 3,8 10,0 15,1 16,2 12 6 13 7 E 1027,1 62 0 0,0

tt = temperature
td = dewpoint
tt 5cm = temperature 5cm
tt -5cm = temperature -5cm
tt -20cm = temperature -20cm
tt -100cm = temperature -100cm
ff = wind speed
fx = gusts
dd = wind direction
ppp = reduced air pressure
vv = visibility
sd = sunshine duration
rr = precipitation

Next stations